N7CVZ Weather Reports


time (UTC)temp
F
wind
direction
speed
knots
gust
knots
rain 1hr
in
rain 24hr
in
rain mn
in
humidity
%
barometer
mb
20260503195600 82 0.0 0.0 0.00 0.00 0.00 45 1010.6
20260503195059 81 0.0 0.0 0.00 0.00 0.00 49 1010.6
20260503194609 80 0.0 0.0 0.00 0.00 0.00 47 1010.6
20260503194057 81 0.0 0.0 0.00 0.00 0.00 47 1010.7
20260503193556 80 0.0 0.0 0.00 0.00 0.00 49 1010.7
20260503193108 80 0.0 0.0 0.00 0.00 0.00 50 1010.8
20260503192553 79 0.0 0.0 0.00 0.00 0.00 47 1010.8
20260503192052 79 0.0 0.0 0.00 0.00 0.00 48 1010.9
20260503191609 79 0.0 0.0 0.00 0.00 0.00 52 1011.0
20260503191051 78 0.0 0.0 0.00 0.00 0.00 53 1011.0
20260503190550 77 0.0 0.0 0.00 0.00 0.00 51 1011.1
20260503190048 77 0.0 0.0 0.00 0.00 0.00 51 1011.1
20260503185549 77 0.0 0.0 0.00 0.00 0.00 58 1011.2
20260503185046 77 0.0 0.0 0.00 0.00 0.00 52 1011.2
20260503184546 76 0.0 0.0 0.00 0.00 0.00 57 1011.2
20260503184048 76 0.0 0.0 0.00 0.00 0.00 55 1011.3
20260503183543 76 0.0 0.0 0.00 0.00 0.00 54 1011.4
20260503183041 76 0.0 0.0 0.00 0.00 0.00 54 1011.5
20260503182541 76 0.0 0.0 0.00 0.00 0.00 53 1011.5
20260503182043 75 0.0 0.0 0.00 0.00 0.00 54 1011.6
20260503181547 75 0.0 0.0 0.00 0.00 0.00 53 1011.5
20260503181038 76 0.0 0.0 0.00 0.00 0.00 55 1011.5
20260503180535 75 0.0 0.0 0.00 0.00 0.00 56 1011.7
20260503180038 75 0.0 0.0 0.00 0.00 0.00 55 1011.7
20260503175535 74 0.0 0.0 0.00 0.00 0.00 58 1011.7
20260503175032 74 0.0 0.0 0.00 0.00 0.00 56 1011.7
20260503174534 74 0.0 0.0 0.00 0.00 0.00 56 1011.9
20260503174028 73 0.0 0.0 0.00 0.00 0.00 57 1011.8
20260503173526 73 0.0 0.0 0.00 0.00 0.00 55 1011.9
20260503173025 72 0.0 0.0 0.00 0.00 0.00 54 1011.9
20260503172523 72 0.0 0.0 0.00 0.00 0.00 57 1011.9
20260503172022 72 0.0 0.0 0.00 0.00 0.00 59 1011.9
20260503171521 71 0.0 0.0 0.00 0.00 0.00 60 1012.0
20260503171019 71 0.0 0.0 0.00 0.00 0.00 60 1012.1
20260503170519 69 0.0 0.0 0.00 0.00 0.00 59 1012.1
20260503150546 62 0.0 0.0 0.00 0.00 0.00 71 1012.4
20260503131022 57 0.0 0.0 0.00 0.00 0.00 80 1012.0
20260503130522 57 0.0 0.0 0.00 0.00 0.00 80 1012.0
20260503110511 57 0.0 0.0 0.00 0.00 0.00 90 1012.4
20260503081554 55 0.0 0.0 0.00 0.00 0.00 95 1012.9
20260503081053 55 0.0 0.0 0.00 0.00 0.00 94 1012.9
20260503080553 55 0.0 0.0 0.00 0.00 0.00 94 1013.0
20260503080103 55 0.0 0.0 0.00 0.00 0.00 94 1012.9
20260503072550 56 0.0 0.0 0.00 0.00 0.00 95 1013.0
20260503072050 55 0.0 0.0 0.00 0.00 0.00 94 1013.1
20260503071605 56 0.0 0.0 0.00 0.00 0.00 94 1013.1
20260503071049 56 0.0 0.0 0.00 0.00 0.00 95 1013.2
20260503070548 56 0.0 0.0 0.00 0.00 0.00 95 1013.1
20260503055046 60 0.0 0.0 0.00 0.00 0.00 86 1013.3
20260503054605 60 0.0 0.0 0.00 0.00 0.00 85 1013.1
20260503054048 61 0.0 0.0 0.00 0.00 0.00 84 1012.9
20260503053544 61 0.0 0.0 0.00 0.00 0.00 84 1012.6
20260503053045 62 0.0 0.0 0.00 0.00 0.00 83 1012.6
20260503052544 62 0.0 0.0 0.00 0.00 0.00 83 1012.7
20260503052043 62 0.0 0.0 0.00 0.00 0.00 83 1012.7
20260503051544 61 0.0 0.0 0.00 0.00 0.00 85 1012.8
20260503051044 60 0.0 0.0 0.00 0.00 0.00 87 1013.0
20260503050544 60 0.0 0.0 0.00 0.00 0.00 88 1013.1
20260503050044 59 0.0 0.0 0.00 0.00 0.00 89 1013.2
20260503045547 59 0.0 0.0 0.00 0.00 0.00 90 1013.1
20260503045044 58 0.0 0.0 0.00 0.00 0.00 90 1013.2
20260503044546 59 0.0 0.0 0.00 0.00 0.00 88 1013.2
20260503044043 59 0.0 0.0 0.00 0.00 0.00 89 1013.2
20260503043542 58 0.0 0.0 0.00 0.00 0.00 90 1013.2
20260503043052 58 0.0 0.0 0.00 0.00 0.00 90 1013.3
20260503042542 59 0.0 0.0 0.00 0.00 0.00 89 1013.5
20260503042042 59 0.0 0.0 0.00 0.00 0.00 90 1013.5
20260503041543 59 0.0 0.0 0.00 0.00 0.00 90 1013.4
20260503041045 59 0.0 0.0 0.00 0.00 0.00 89 1013.2
20260503040543 59 0.0 0.0 0.00 0.00 0.00 90 1013.3
20260503040046 58 0.0 0.0 0.00 0.00 0.00 90 1013.3
20260503035542 58 0.0 0.0 0.00 0.00 0.00 90 1013.2
20260503035043 58 0.0 0.0 0.00 0.00 0.00 90 1013.1
20260503034546 58 0.0 0.0 0.00 0.00 0.00 89 1013.2
20260503034042 59 0.0 0.0 0.00 0.00 0.00 89 1013.1
20260503033540 59 0.0 0.0 0.00 0.00 0.00 88 1013.1
20260503033042 60 0.0 0.0 0.00 0.00 0.00 87 1013.1
20260503032541 61 0.0 0.0 0.00 0.00 0.00 86 1013.2
20260503032041 62 0.0 0.0 0.00 0.00 0.00 84 1013.1
20260503031541 62 0.0 0.0 0.00 0.00 0.00 84 1013.1
20260503031041 62 0.0 0.0 0.00 0.00 0.00 83 1013.1
20260503030541 63 0.0 0.0 0.00 0.00 0.00 82 1013.1
20260503030040 63 0.0 0.0 0.00 0.00 0.00 82 1013.0
20260503025540 63 0.0 0.0 0.00 0.00 0.00 81 1013.0
20260503025040 64 0.0 0.0 0.00 0.00 0.00 80 1012.9
20260503024540 64 0.0 0.0 0.00 0.00 0.00 80 1012.8
20260503024040 64 0.0 0.0 0.00 0.00 0.00 81 1012.8
20260503023540 64 0.0 0.0 0.00 0.00 0.00 81 1012.8
20260503023043 64 0.0 0.0 0.00 0.00 0.00 81 1012.7
20260503022539 64 0.0 0.0 0.00 0.00 0.00 82 1012.7
20260503022039 64 0.0 0.0 0.00 0.00 0.00 84 1012.7
20260503021541 64 0.0 0.0 0.00 0.00 0.00 84 1012.6
20260503021039 65 0.0 0.0 0.00 0.00 0.00 80 1012.4
20260503020540 64 0.0 0.0 0.00 0.00 0.00 82 1012.2
20260503020040 64 0.0 0.0 0.00 0.00 0.00 82 1012.2
20260503015541 65 0.0 0.0 0.00 0.00 0.00 82 1012.1
20260503015038 65 0.0 0.0 0.00 0.00 0.00 82 1012.1
20260503014538 65 0.0 0.0 0.00 0.00 0.00 81 1012.0
20260503014038 65 0.0 0.0 0.00 0.00 0.00 81 1011.9
20260503013538 65 0.0 0.0 0.00 0.00 0.00 81 1011.9
20260503013042 65 0.0 0.0 0.00 0.00 0.00 81 1011.9
20260503012537 65 0.0 0.0 0.00 0.00 0.00 80 1011.9
20260503012036 66 0.0 0.0 0.00 0.00 0.00 80 1011.9
20260503011537 66 0.0 0.0 0.00 0.00 0.00 81 1011.9
20260503011039 66 0.0 0.0 0.00 0.00 0.00 81 1011.9
20260503010539 66 0.0 0.0 0.00 0.00 0.00 83 1011.8
20260503010038 66 0.0 0.0 0.00 0.00 0.00 79 1011.9
20260503005536 66 0.0 0.0 0.00 0.00 0.00 80 1011.9
20260503005036 66 0.0 0.0 0.00 0.00 0.00 80 1011.9
20260503004537 66 0.0 0.0 0.00 0.00 0.00 81 1011.9
20260503004038 66 0.0 0.0 0.00 0.00 0.00 78 1011.9
20260503003535 66 0.0 0.0 0.00 0.00 0.00 77 1011.9
20260503003044 66 0.0 0.0 0.00 0.00 0.00 79 1011.9
20260503002535 67 0.0 0.0 0.00 0.00 0.00 80 1011.9
20260503002036 66 0.0 0.0 0.00 0.00 0.00 80 1011.9
20260503001541 66 0.0 0.0 0.00 0.00 0.00 79 1011.9
20260503001034 67 0.0 0.0 0.00 0.00 0.00 81 1011.9
20260503000533 67 0.0 0.0 0.00 0.00 0.00 81 1011.9
20260503000041 67 0.0 0.0 0.00 0.00 0.00 80 1012.0
20260502235533 67 0.0 0.0 0.00 0.00 0.00 78 1012.0
20260502235033 67 0.0 0.0 0.00 0.00 0.00 79 1012.0
20260502234546 67 0.0 0.0 0.00 0.00 0.00 78 1012.0
20260502234033 68 0.0 0.0 0.00 0.00 0.00 77 1012.0
20260502233632 68 0.0 0.0 0.00 0.00 0.00 77 1012.0
20260502233039 68 0.0 0.0 0.00 0.00 0.00 73 1012.1
20260502232530 68 0.0 0.0 0.00 0.00 0.00 74 1012.1
20260502232030 68 0.0 0.0 0.00 0.00 0.00 76 1012.2
20260502231529 68 0.0 0.0 0.00 0.00 0.00 77 1012.3
20260502231028 68 0.0 0.0 0.00 0.00 0.00 72 1012.3
20260502230528 68 0.0 0.0 0.00 0.00 0.00 76 1012.4
20260502230032 68 0.0 0.0 0.00 0.00 0.00 71 1012.4
20260502225526 68 0.0 0.0 0.00 0.00 0.00 75 1012.4
20260502225025 67 0.0 0.0 0.00 0.00 0.00 73 1012.5
20260502224525 68 0.0 0.0 0.00 0.00 0.00 75 1012.6
20260502224024 67 0.0 0.0 0.00 0.00 0.00 74 1012.7
20260502223523 66 0.0 0.0 0.00 0.00 0.00 72 1012.8
20260502223033 67 0.0 0.0 0.00 0.00 0.00 71 1012.9
20260502222521 67 0.0 0.0 0.00 0.00 0.00 79 1013.0
20260502222021 67 0.0 0.0 0.00 0.00 0.00 71 1013.1
20260502221519 68 0.0 0.0 0.00 0.00 0.00 75 1013.1
20260502221018 67 0.0 0.0 0.00 0.00 0.00 76 1013.2
20260502220518 66 0.0 0.0 0.00 0.00 0.00 76 1013.3
20260502220022 67 0.0 0.0 0.00 0.00 0.00 77 1013.4
20260502215518 66 0.0 0.0 0.00 0.00 0.00 74 1013.5
20260502215016 64 0.0 0.0 0.00 0.00 0.00 76 1013.5
20260502214515 65 0.0 0.0 0.00 0.00 0.00 76 1013.6
20260502214017 66 0.0 0.0 0.00 0.00 0.00 73 1013.7
20260502213513 65 0.0 0.0 0.00 0.00 0.00 76 1013.8
20260502213012 64 0.0 0.0 0.00 0.00 0.00 75 1013.8
20260502212512 64 0.0 0.0 0.00 0.00 0.00 78 1013.9
20260502212013 64 0.0 0.0 0.00 0.00 0.00 74 1013.9
20260502211512 64 0.0 0.0 0.00 0.00 0.00 79 1014.0
20260502211010 64 0.0 0.0 0.00 0.00 0.00 75 1014.1
20260502210508 64 0.0 0.0 0.00 0.00 0.00 79 1014.2
20260502210008 64 0.0 0.0 0.00 0.00 0.00 77 1014.3
20260502205507 62 0.0 0.0 0.00 0.00 0.00 80 1014.4
20260502205007 61 0.0 0.0 0.00 0.00 0.00 80 1014.5
20260502204506 63 0.0 0.0 0.00 0.00 0.00 80 1014.5
20260502204006 63 0.0 0.0 0.00 0.00 0.00 77 1014.5
20260502203508 64 0.0 0.0 0.00 0.00 0.00 81 1014.6
20260502203003 63 0.0 0.0 0.00 0.00 0.00 82 1014.6
20260502202504 63 0.0 0.0 0.00 0.00 0.00 80 1014.6
20260502202003 63 0.0 0.0 0.00 0.00 0.00 79 1014.8
20260502201502 63 0.0 0.0 0.00 0.00 0.00 82 1014.8
20260502201001 60 0.0 0.0 0.00 0.00 0.00 84 1014.9
20260502200502 60 0.0 0.0 0.00 0.00 0.00 83 1014.9
20260502200002 59 0.0 0.0 0.00 0.00 0.00 82 1014.9